Hourly Weather Barra

Today, 30 September, Wednesday

Time Temperature Precipitation Wind Pressure Humidity
00:00 +20°C° 0 mm 4 mps 751 mmHg 85%
01:00 +20°C° 0 mm 4 mps 751 mmHg 85%
02:00 +20°C° 0.1 mm 4 mps 751 mmHg 85%
03:00 +20°C° 0.1 mm 4 mps 751 mmHg 84%
04:00 +20°C° 0 mm 4 mps 750 mmHg 84%
05:00 +20°C° 0.1 mm 3 mps 750 mmHg 82%
06:00 +21°C° 0.1 mm 3 mps 751 mmHg 81%
07:00 +21°C° 0.1 mm 3 mps 751 mmHg 79%
08:00 +24°C° 0.1 mm 3 mps 751 mmHg 73%
09:00 +25°C° 0.1 mm 4 mps 751 mmHg 67%
10:00 +27°C° 0 mm 4 mps 752 mmHg 61%
11:00 +27°C° 0.1 mm 4 mps 751 mmHg 61%
12:00 +27°C° 0.1 mm 4 mps 750 mmHg 60%
13:00 +27°C° 0.1 mm 4 mps 749 mmHg 60%
14:00 +27°C° 0 mm 4 mps 749 mmHg 62%
15:00 +26°C° 0 mm 4 mps 749 mmHg 65%
16:00 +26°C° 0 mm 3 mps 749 mmHg 67%
17:00 +25°C° 0.1 mm 3 mps 749 mmHg 73%
18:00 +22°C° 0.1 mm 3 mps 749 mmHg 78%
19:00 +21°C° 0.1 mm 3 mps 750 mmHg 84%
20:00 +21°C° 0 mm 3 mps 750 mmHg 85%
21:00 +21°C° 0 mm 3 mps 751 mmHg 86%
22:00 +20°C° 0 mm 3 mps 752 mmHg 87%
23:00 +20°C° 0 mm 3 mps 751 mmHg 85%

Tomorrow, 1 October, Thursday

Time Temperature Precipitation Wind Pressure Humidity
00:00 +21°C° 0 mm 3 mps 751 mmHg 84%
01:00 +21°C° 0 mm 2 mps 750 mmHg 83%
02:00 +21°C° 0 mm 2 mps 750 mmHg 82%
03:00 +21°C° 0 mm 2 mps 750 mmHg 81%
04:00 +21°C° 0 mm 2 mps 750 mmHg 80%
05:00 +21°C° 0 mm 2 mps 750 mmHg 79%
06:00 +21°C° 0 mm 2 mps 751 mmHg 78%
07:00 +23°C° 0 mm 2 mps 751 mmHg 77%
08:00 +24°C° 0 mm 2 mps 751 mmHg 72%
09:00 +26°C° 0 mm 3 mps 752 mmHg 67%
10:00 +27°C° 0 mm 3 mps 752 mmHg 61%
11:00 +28°C° 0 mm 3 mps 751 mmHg 59%
12:00 +28°C° 0 mm 3 mps 751 mmHg 56%
13:00 +29°C° 0 mm 3 mps 750 mmHg 54%
14:00 +29°C° 0 mm 3 mps 750 mmHg 56%
15:00 +28°C° 0 mm 3 mps 750 mmHg 57%
16:00 +27°C° 0 mm 3 mps 749 mmHg 59%
17:00 +26°C° 0 mm 3 mps 750 mmHg 66%
18:00 +24°C° 0 mm 3 mps 750 mmHg 74%
19:00 +21°C° 0 mm 2 mps 751 mmHg 81%
20:00 +21°C° 0 mm 2 mps 751 mmHg 83%
21:00 +20°C° 0 mm 2 mps 752 mmHg 84%
22:00 +20°C° 0 mm 2 mps 752 mmHg 86%
23:00 +20°C° 0 mm 3 mps 752 mmHg 85%

Day after tomorrow, 2 October, Friday

Time Temperature Precipitation Wind Pressure Humidity
00:00 +21°C° 0 mm 3 mps 752 mmHg 83%
01:00 +21°C° 0 mm 3 mps 752 mmHg 82%
02:00 +21°C° 0.1 mm 3 mps 752 mmHg 83%
03:00 +21°C° 0.1 mm 3 mps 752 mmHg 84%
04:00 +21°C° 0.1 mm 3 mps 752 mmHg 85%
05:00 +21°C° 0 mm 4 mps 752 mmHg 84%
06:00 +22°C° 0 mm 4 mps 752 mmHg 83%
07:00 +22°C° 0 mm 4 mps 752 mmHg 82%
08:00 +23°C° 0 mm 4 mps 753 mmHg 75%
09:00 +26°C° 0 mm 5 mps 753 mmHg 68%
10:00 +27°C° 0 mm 5 mps 753 mmHg 61%
11:00 +28°C° 0 mm 5 mps 753 mmHg 58%
12:00 +28°C° 0 mm 6 mps 752 mmHg 55%
13:00 +29°C° 0 mm 6 mps 752 mmHg 52%
14:00 +28°C° 0 mm 6 mps 752 mmHg 53%
15:00 +28°C° 0 mm 6 mps 751 mmHg 55%
16:00 +28°C° 0 mm 6 mps 751 mmHg 56%
17:00 +26°C° 0 mm 5 mps 752 mmHg 63%
18:00 +25°C° 0 mm 5 mps 752 mmHg 70%
19:00 +22°C° 0 mm 5 mps 752 mmHg 78%
20:00 +22°C° 0 mm 5 mps 753 mmHg 79%
21:00 +21°C° 0 mm 5 mps 753 mmHg 81%
22:00 +21°C° 0 mm 5 mps 753 mmHg 83%
23:00 +21°C° 0.1 mm 6 mps 753 mmHg 83%

3 October, Saturday

Time Temperature Precipitation Wind Pressure Humidity
00:00 +21°C° 0.1 mm 6 mps 753 mmHg 82%
01:00 +21°C° 0.1 mm 6 mps 752 mmHg 82%
02:00 +21°C° 0.1 mm 6 mps 752 mmHg 81%
03:00 +21°C° 0.1 mm 6 mps 752 mmHg 80%
04:00 +21°C° 0.1 mm 6 mps 752 mmHg 79%
05:00 +22°C° 0 mm 6 mps 752 mmHg 77%
06:00 +22°C° 0 mm 6 mps 752 mmHg 75%
07:00 +22°C° 0 mm 6 mps 753 mmHg 73%
08:00 +23°C° 0 mm 6 mps 753 mmHg 68%
09:00 +24°C° 0 mm 7 mps 753 mmHg 64%
10:00 +26°C° 0 mm 7 mps 753 mmHg 60%
11:00 +26°C° 0 mm 7 mps 753 mmHg 58%
12:00 +27°C° 0 mm 7 mps 752 mmHg 57%
13:00 +27°C° 0 mm 7 mps 752 mmHg 55%
14:00 +27°C° 0 mm 7 mps 751 mmHg 57%
15:00 +27°C° 0 mm 6 mps 751 mmHg 59%
16:00 +26°C° 0 mm 6 mps 751 mmHg 61%
17:00 +24°C° 0.1 mm 6 mps 751 mmHg 68%
18:00 +23°C° 0.1 mm 6 mps 752 mmHg 74%
19:00 +21°C° 0.1 mm 5 mps 752 mmHg 81%
20:00 +21°C° 0.2 mm 6 mps 752 mmHg 82%
21:00 +21°C° 0.2 mm 6 mps 753 mmHg 83%
22:00 +21°C° 0.2 mm 6 mps 753 mmHg 83%
23:00 +21°C° 0.1 mm 6 mps 752 mmHg 84%

4 October, Sunday

Time Temperature Precipitation Wind Pressure Humidity
00:00 +21°C° 0.1 mm 6 mps 752 mmHg 84%
01:00 +21°C° 0.1 mm 6 mps 751 mmHg 85%
02:00 +21°C° 0.1 mm 6 mps 751 mmHg 84%
03:00 +21°C° 0.1 mm 6 mps 751 mmHg 83%
04:00 +21°C° 0.1 mm 6 mps 750 mmHg 83%
05:00 +21°C° 0.1 mm 5 mps 751 mmHg 82%
06:00 +22°C° 0.1 mm 5 mps 751 mmHg 80%
07:00 +22°C° 0.1 mm 5 mps 752 mmHg 79%
08:00 +23°C° 0.2 mm 5 mps 752 mmHg 74%
09:00 +25°C° 0.2 mm 5 mps 751 mmHg 70%
10:00 +26°C° 0.2 mm 5 mps 751 mmHg 65%
11:00 +26°C° 0.2 mm 5 mps 751 mmHg 65%
12:00 +26°C° 0.2 mm 5 mps 751 mmHg 64%
13:00 +27°C° 0.2 mm 5 mps 750 mmHg 64%
14:00 +26°C° 0.1 mm 5 mps 750 mmHg 64%
15:00 +26°C° 0.1 mm 5 mps 749 mmHg 65%
16:00 +26°C° 0.1 mm 6 mps 749 mmHg 65%
17:00 +25°C° 0.2 mm 5 mps 750 mmHg 72%
18:00 +23°C° 0.2 mm 5 mps 750 mmHg 79%
19:00 +22°C° 0.2 mm 4 mps 751 mmHg 86%
20:00 +21°C° 0.3 mm 4 mps 751 mmHg 87%
21:00 +21°C° 0.3 mm 4 mps 751 mmHg 89%
22:00 +21°C° 0.3 mm 4 mps 752 mmHg 90%
23:00 +21°C° 0.2 mm 4 mps 751 mmHg 90%

5 October, Monday

Time Temperature Precipitation Wind Pressure Humidity
00:00 +21°C° 0.2 mm 4 mps 751 mmHg 90%
01:00 +20°C° 0.2 mm 4 mps 750 mmHg 90%
02:00 +20°C° 0.1 mm 4 mps 750 mmHg 90%
03:00 +20°C° 0.1 mm 4 mps 750 mmHg 90%
04:00 +20°C° 0.1 mm 4 mps 749 mmHg 90%
05:00 +20°C° 0.1 mm 4 mps 750 mmHg 89%
06:00 +21°C° 0.1 mm 4 mps 750 mmHg 87%
07:00 +21°C° 0.1 mm 4 mps 751 mmHg 86%
08:00 +23°C° 0.1 mm 4 mps 751 mmHg 79%
09:00 +25°C° 0.1 mm 5 mps 751 mmHg 73%
10:00 +26°C° 0.1 mm 5 mps 751 mmHg 66%
11:00 +26°C° 0.1 mm 5 mps 750 mmHg 63%
12:00 +27°C° 0.1 mm 5 mps 750 mmHg 61%
13:00 +27°C° 0.1 mm 5 mps 749 mmHg 58%
14:00 +27°C° 0 mm 5 mps 749 mmHg 60%
15:00 +26°C° 0 mm 5 mps 749 mmHg 61%
16:00 +26°C° 0 mm 4 mps 749 mmHg 63%
17:00 +25°C° 0 mm 4 mps 749 mmHg 69%
18:00 +22°C° 0 mm 4 mps 749 mmHg 76%
19:00 +21°C° 0 mm 3 mps 750 mmHg 83%
20:00 +21°C° 0.1 mm 3 mps 750 mmHg 86%
21:00 +21°C° 0.1 mm 3 mps 751 mmHg 88%
22:00 +20°C° 0.1 mm 3 mps 751 mmHg 90%
23:00 +20°C° 0.1 mm 3 mps 751 mmHg 90%
Show more